�������l�o���
Date,Time,MP-1(��Sv/h),MP-2(��Sv/h),MP-3(��Sv/h),MP-4(��Sv/h),MP-5(��Sv/h),MP-6(��Sv/h),MP-7(��Sv/h),����,����(m/s),���J
2021/03/02,00:00,0.177,0.162,0.261,0.246,0.238,0.140,0.085,��쐼,11.2,��
2021/03/02,00:10,0.178,0.161,0.260,0.247,0.240,0.141,0.085,��,10.6,��
2021/03/02,00:20,0.178,0.161,0.260,0.247,0.241,0.140,0.085,��,9.8,��
2021/03/02,00:30,0.178,0.161,0.260,0.247,0.238,0.140,0.084,��,10.9,��
2021/03/02,00:40,0.178,0.161,0.261,0.246,0.241,0.141,0.086,��쐼,9.8,��
2021/03/02,00:50,0.177,0.161,0.261,0.249,0.239,0.141,0.084,��쐼,10.3,��
2021/03/02,01:00,0.179,0.161,0.260,0.245,0.241,0.141,0.085,��쐼,9.5,��
2021/03/02,01:10,0.177,0.162,0.261,0.248,0.240,0.140,0.085,��,9.6,��
2021/03/02,01:20,0.177,0.160,0.262,0.247,0.240,0.140,0.084,��쐼,11.4,��
2021/03/02,01:30,0.178,0.161,0.259,0.246,0.241,0.141,0.085,��쐼,11.7,��
2021/03/02,01:40,0.177,0.161,0.261,0.248,0.239,0.141,0.084,��,8.4,��
2021/03/02,01:50,0.179,0.161,0.260,0.246,0.241,0.140,0.085,��,8.5,��
2021/03/02,02:00,0.177,0.161,0.260,0.247,0.239,0.140,0.085,��쐼,11.1,��
2021/03/02,02:10,0.177,0.161,0.261,0.248,0.240,0.141,0.084,��쐼,11.2,��
2021/03/02,02:20,0.177,0.161,0.261,0.246,0.240,0.140,0.085,��쐼,10.6,��
2021/03/02,02:30,0.177,0.161,0.261,0.249,0.240,0.141,0.084,��,8.8,��
2021/03/02,02:40,0.178,0.161,0.261,0.247,0.240,0.140,0.085,��,12.0,��
2021/03/02,02:50,0.176,0.161,0.260,0.247,0.238,0.141,0.084,��,10.3,��
2021/03/02,03:00,0.178,0.161,0.262,0.248,0.241,0.140,0.085,��쐼,12.4,��
2021/03/02,03:10,0.177,0.161,0.261,0.245,0.240,0.141,0.085,��,9.6,��
2021/03/02,03:20,0.178,0.161,0.261,0.246,0.240,0.140,0.084,��쐼,10.6,��
2021/03/02,03:30,0.178,0.160,0.262,0.247,0.239,0.139,0.085,��,10.9,�L
2021/03/02,03:40,0.178,0.161,0.259,0.247,0.240,0.141,0.085,��쐼,11.2,�L
2021/03/02,03:50,0.179,0.161,0.261,0.247,0.241,0.140,0.085,��,14.0,��
2021/03/02,04:00,0.178,0.161,0.261,0.247,0.239,0.141,0.084,��,12.6,��
2021/03/02,04:10,0.178,0.162,0.259,0.248,0.241,0.140,0.085,��쐼,12.8,��
2021/03/02,04:20,0.178,0.161,0.262,0.248,0.240,0.141,0.085,��쐼,15.0,��
2021/03/02,04:30,0.178,0.161,0.260,0.246,0.241,0.141,0.085,��쐼,13.1,��
2021/03/02,04:40,0.178,0.161,0.259,0.246,0.240,0.140,0.085,��,11.7,��
2021/03/02,04:50,0.177,0.161,0.261,0.247,0.238,0.140,0.085,��쐼,13.7,��
2021/03/02,05:00,0.179,0.162,0.259,0.247,0.240,0.140,0.085,��,11.7,��
2021/03/02,05:10,0.178,0.161,0.260,0.247,0.239,0.140,0.085,��,14.0,��
2021/03/02,05:20,0.178,0.161,0.261,0.248,0.241,0.141,0.086,��쐼,13.1,��
2021/03/02,05:30,0.177,0.163,0.260,0.247,0.240,0.140,0.085,��쐼,11.7,��
2021/03/02,05:40,0.178,0.161,0.262,0.247,0.240,0.141,0.085,��쐼,13.4,��
2021/03/02,05:50,0.178,0.162,0.261,0.247,0.241,0.141,0.085,��,12.5,��
2021/03/02,06:00,0.177,0.162,0.261,0.245,0.239,0.140,0.085,��쐼,13.7,��
2021/03/02,06:10,0.178,0.161,0.262,0.248,0.241,0.140,0.085,��,13.1,��
2021/03/02,06:20,0.178,0.161,0.260,0.246,0.238,0.141,0.085,��쐼,12.9,�L
2021/03/02,06:30,0.178,0.161,0.260,0.246,0.240,0.141,0.084,��쐼,13.6,�L
2021/03/02,06:40,0.178,0.161,0.262,0.248,0.240,0.140,0.086,��쐼,14.7,�L
2021/03/02,06:50,0.178,0.163,0.261,0.246,0.240,0.141,0.085,��쐼,12.3,��
2021/03/02,07:00,0.178,0.160,0.261,0.247,0.241,0.142,0.085,��쐼,14.8,��
2021/03/02,07:10,0.178,0.161,0.261,0.246,0.240,0.141,0.086,��,12.5,�L
2021/03/02,07:20,0.178,0.162,0.260,0.247,0.240,0.141,0.086,��쐼,12.6,�L
2021/03/02,07:30,0.179,0.162,0.261,0.247,0.240,0.142,0.086,��쐼,13.3,�L
2021/03/02,07:40,0.177,0.162,0.260,0.247,0.240,0.142,0.086,��쐼,12.9,�L
2021/03/02,07:50,0.178,0.162,0.259,0.246,0.241,0.142,0.086,��,13.4,�L
2021/03/02,08:00,0.177,0.163,0.261,0.249,0.240,0.142,0.086,��쐼,12.5,��
2021/03/02,08:10,0.179,0.162,0.260,0.245,0.241,0.141,0.086,��쐼,12.8,��
2021/03/02,08:20,0.177,0.161,0.262,0.248,0.239,0.141,0.085,��,12.2,��
2021/03/02,08:30,0.179,0.161,0.260,0.246,0.240,0.141,0.086,��,13.1,��
2021/03/02,08:40,0.177,0.161,0.260,0.246,0.239,0.141,0.086,��,12.0,��
2021/03/02,08:50,0.178,0.161,0.260,0.248,0.239,0.141,0.085,��쐼,12.6,��
2021/03/02,09:00,0.177,0.161,0.260,0.246,0.240,0.141,0.085,��쐼,11.7,��
2021/03/02,09:10,0.178,0.160,0.262,0.247,0.240,0.140,0.085,��,11.7,��
2021/03/02,09:20,0.179,0.162,0.259,0.246,0.241,0.141,0.085,��,11.5,��
2021/03/02,09:30,0.177,0.160,0.260,0.246,0.238,0.140,0.086,��,10.7,��
2021/03/02,09:40,0.178,0.161,0.260,0.246,0.241,0.140,0.084,��,11.5,��
2021/03/02,09:50,0.178,0.160,0.260,0.245,0.238,0.140,0.085,��,12.0,��
2021/03/02,10:00,0.178,0.161,0.259,0.248,0.240,0.140,0.084,��,12.0,��
2021/03/02,10:10,0.177,0.161,0.259,0.246,0.238,0.141,0.085,��,12.0,��
2021/03/02,10:20,0.178,0.162,0.260,0.246,0.240,0.140,0.084,��,10.9,��
2021/03/02,10:30,0.177,0.162,0.259,0.247,0.238,0.140,0.085,��쐼,11.2,��
2021/03/02,10:40,0.178,0.161,0.260,0.247,0.240,0.140,0.085,��,10.0,��
2021/03/02,10:50,0.177,0.161,0.260,0.247,0.239,0.140,0.086,��,10.1,��
2021/03/02,11:00,0.177,0.161,0.260,0.246,0.241,0.140,0.085,��,9.5,�L
2021/03/02,11:10,0.177,0.161,0.260,0.246,0.239,0.142,0.085,��,9.5,�L
2021/03/02,11:20,0.179,0.162,0.261,0.246,0.241,0.142,0.086,��,9.2,�L
2021/03/02,11:30,0.177,0.162,0.261,0.248,0.240,0.142,0.085,��쐼,9.8,�L
2021/03/02,11:40,0.179,0.161,0.259,0.246,0.240,0.141,0.086,��,9.2,�L
2021/03/02,11:50,0.178,0.161,0.261,0.247,0.239,0.141,0.086,��,10.6,�L
2021/03/02,12:00,0.179,0.162,0.260,0.247,0.239,0.141,0.086,��,9.2,�L
2021/03/02,12:10,0.178,0.162,0.261,0.247,0.240,0.141,0.086,��,10.4,�L
2021/03/02,12:20,0.178,0.162,0.259,0.247,0.239,0.141,0.086,��,9.8,��
2021/03/02,12:30,0.179,0.161,0.259,0.245,0.240,0.141,0.085,��,8.7,��
2021/03/02,12:40,0.178,0.161,0.259,0.247,0.240,0.140,0.085,��,9.0,��
2021/03/02,12:50,0.178,0.162,0.258,0.244,0.240,0.140,0.085,��,7.7,��
2021/03/02,13:00,0.177,0.161,0.260,0.247,0.238,0.140,0.086,��,9.0,�L
2021/03/02,13:10,0.177,0.161,0.258,0.245,0.240,0.140,0.085,��,8.7,�L
2021/03/02,13:20,0.177,0.161,0.260,0.246,0.238,0.141,0.085,��,10.1,��
2021/03/02,13:30,0.179,0.161,0.258,0.246,0.241,0.141,0.086,��,10.9,��
2021/03/02,13:40,0.177,0.160,0.259,0.246,0.238,0.140,0.085,��,7.4,��
2021/03/02,13:50,0.177,0.161,0.259,0.246,0.240,0.140,0.085,��쓌,6.9,��
2021/03/02,14:00,0.178,0.161,0.259,0.246,0.238,0.140,0.085,��,7.8,��
2021/03/02,14:10,0.176,0.162,0.258,0.244,0.240,0.142,0.084,��,6.5,�L
2021/03/02,14:20,0.178,0.160,0.260,0.246,0.239,0.141,0.085,��,7.1,��
2021/03/02,14:30,0.176,0.162,0.259,0.246,0.239,0.141,0.085,���쐼,6.5,�L
2021/03/02,14:40,0.179,0.162,0.258,0.245,0.240,0.141,0.086,���k��,10.3,�L
2021/03/02,14:50,0.178,0.164,0.258,0.244,0.240,0.142,0.088,��,9.0,�L
2021/03/02,15:00,0.179,0.163,0.258,0.243,0.239,0.142,0.089,��,7.4,�L
2021/03/02,15:10,0.180,0.163,0.259,0.244,0.241,0.143,0.088,��,5.3,�L
2021/03/02,15:20,0.179,0.164,0.258,0.245,0.241,0.142,0.089,��,3.6,�L
2021/03/02,15:30,0.178,0.164,0.257,0.243,0.240,0.143,0.089,��,4.9,�L
2021/03/02,15:40,0.180,0.162,0.255,0.244,0.241,0.144,0.089,���k��,5.4,�L
2021/03/02,15:50,0.179,0.162,0.256,0.243,0.240,0.143,0.089,�k��,4.8,�L
2021/03/02,16:00,0.179,0.163,0.254,0.242,0.239,0.144,0.089,�k�k��,5.8,�L
2021/03/02,16:10,0.180,0.162,0.254,0.242,0.240,0.142,0.089,�k�k��,7.4,�L
2021/03/02,16:20,0.178,0.163,0.255,0.241,0.239,0.143,0.090,�k��,7.1,�L
2021/03/02,16:30,0.178,0.163,0.253,0.241,0.240,0.144,0.090,���k��,6.8,�L
2021/03/02,16:40,0.179,0.162,0.253,0.241,0.239,0.144,0.091,�k��,6.9,�L
2021/03/02,16:50,0.177,0.162,0.254,0.240,0.240,0.143,0.091,�k�k��,6.9,�L
2021/03/02,17:00,0.178,0.162,0.252,0.240,0.239,0.142,0.090,�k�k��,6.4,�L
2021/03/02,17:10,0.179,0.162,0.253,0.240,0.239,0.142,0.090,�k��,10.0,�L
2021/03/02,17:20,0.179,0.161,0.252,0.240,0.238,0.141,0.090,�k��,8.8,�L
2021/03/02,17:30,0.178,0.161,0.252,0.240,0.238,0.142,0.090,�k��,6.6,�L
2021/03/02,17:40,0.177,0.162,0.251,0.240,0.239,0.142,0.090,�k��,9.0,�L
2021/03/02,17:50,0.178,0.161,0.251,0.239,0.236,0.141,0.089,�k��,7.2,�L
2021/03/02,18:00,0.178,0.162,0.251,0.239,0.238,0.142,0.089,���k��,5.8,�L
2021/03/02,18:10,0.178,0.162,0.250,0.239,0.238,0.142,0.090,�k�k��,9.2,�L
2021/03/02,18:20,0.179,0.162,0.251,0.237,0.238,0.143,0.091,�k�k��,8.4,�L
2021/03/02,18:30,0.181,0.163,0.251,0.238,0.240,0.143,0.091,�k�k��,9.2,�L
2021/03/02,18:40,0.181,0.164,0.252,0.240,0.240,0.142,0.091,�k��,8.5,�L
2021/03/02,18:50,0.179,0.164,0.252,0.240,0.240,0.143,0.092,�k�k��,9.2,�L
2021/03/02,19:00,0.181,0.164,0.253,0.240,0.241,0.144,0.094,�k�k��,9.2,�L
2021/03/02,19:10,0.181,0.165,0.254,0.241,0.242,0.145,0.095,�k�k��,10.1,�L
2021/03/02,19:20,0.180,0.165,0.255,0.242,0.242,0.144,0.094,�k�k��,10.1,�L
2021/03/02,19:30,0.180,0.165,0.255,0.243,0.242,0.145,0.093,�k�k��,10.0,�L
2021/03/02,19:40,0.180,0.166,0.254,0.242,0.242,0.144,0.093,�k��,9.5,�L
2021/03/02,19:50,0.179,0.165,0.255,0.241,0.241,0.144,0.093,�k��,8.8,�L
2021/03/02,20:00,0.179,0.164,0.254,0.241,0.241,0.145,0.092,�k��,8.4,�L
2021/03/02,20:10,0.179,0.164,0.256,0.242,0.241,0.143,0.092,�k�k��,8.2,�L
2021/03/02,20:20,0.178,0.165,0.256,0.243,0.242,0.143,0.093,�k��,8.7,�L
2021/03/02,20:30,0.180,0.165,0.256,0.243,0.242,0.144,0.093,�k�k��,8.2,�L
2021/03/02,20:40,0.181,0.166,0.257,0.245,0.243,0.145,0.095,�k��,7.8,�L
2021/03/02,20:50,0.183,0.168,0.257,0.245,0.244,0.147,0.096,�k��,8.7,�L
2021/03/02,21:00,0.181,0.167,0.258,0.245,0.244,0.146,0.095,�k��,7.0,��
2021/03/02,21:10,0.179,0.165,0.258,0.244,0.243,0.144,0.094,�k�k��,8.2,��
2021/03/02,21:20,0.179,0.162,0.255,0.242,0.242,0.142,0.092,�k��,9.0,��
2021/03/02,21:30,0.177,0.163,0.255,0.242,0.241,0.142,0.092,�k��,10.4,��
2021/03/02,21:40,0.175,0.162,0.252,0.240,0.239,0.141,0.090,�k��,8.5,��
2021/03/02,21:50,0.175,0.160,0.251,0.239,0.239,0.140,0.089,�k��,8.3,��
2021/03/02,22:00,0.174,0.159,0.252,0.238,0.238,0.138,0.087,�k��,9.2,��
2021/03/02,22:10,0.172,0.157,0.250,0.236,0.236,0.137,0.086,�k��,8.7,��
2021/03/02,22:20,0.172,0.157,0.249,0.236,0.236,0.136,0.085,�k��,9.6,��
2021/03/02,22:30,0.172,0.156,0.248,0.236,0.236,0.135,0.085,�k�k��,8.7,��
2021/03/02,22:40,0.170,0.156,0.248,0.235,0.234,0.135,0.084,�k��,10.6,��
2021/03/02,22:50,0.171,0.154,0.245,0.234,0.234,0.135,0.084,�k��,9.8,��
2021/03/02,23:00,0.171,0.155,0.249,0.234,0.234,0.134,0.084,�k��,10.1,��
2021/03/02,23:10,0.170,0.155,0.247,0.235,0.235,0.133,0.083,�k�k��,9.6,��
2021/03/02,23:20,0.171,0.154,0.247,0.233,0.234,0.133,0.083,�k��,10.6,��
2021/03/02,23:30,0.170,0.155,0.247,0.233,0.233,0.133,0.083,�k��,12.5,��
2021/03/02,23:40,0.171,0.154,0.247,0.232,0.234,0.133,0.083,�k��,12.8,��
2021/03/02,23:50,0.169,0.153,0.248,0.234,0.233,0.133,0.082,�k��,10.1,��
